カタログに戻る

STARLINK-33786

運用中通信VLEO
NORAD 63514·PAYLOAD·🇺🇸 United States

打ち上げ Apr 7, 2025 から Vandenberg Space Force Base

Loading…

次のパス (今後24時間)

TLE

最新Source: CelesTrak SupGP

元期: Sep 15, 2026, 03:21 UTC

1 63514C 25071X   26258.14006944  .00068563  00000+0  20253-2 0  2584
2 63514  53.1580 338.5427 0001208  95.9763 308.4895 15.34363407    19

AllMySatでSTARLINK-33786をリアルタイム追跡

Download on the App Store